This is the latest recevied weather packets stored in our database for station/object KC1TEM-13. If no packets are shown the sender has not sent any weather packets the latest 10 day(s).
| Time | Temp. | Humidity | Pressure | Rain* | Wind** | Luminosity | Snow |
|---|---|---|---|---|---|---|---|
| 1777723473 | 6.67° C | 89% | 1013.3 hPa | 3.05 mm | - | 36 W/m² | - |
| 1777723171 | 6.67° C | 87% | 1013.4 hPa | 1.27 mm | - | 31 W/m² | - |
| 1777722868 | 6.67° C | 86% | 1013.1 hPa | 0.51 mm | - | 15 W/m² | - |
| 1777722564 | 7.22° C | 86% | 1012.9 hPa | 1.27 mm | - | 13 W/m² | - |
| 1777722261 | 7.22° C | 83% | 1012.4 hPa | 0 mm | - | 15 W/m² | - |
| 1777721958 | 7.22° C | 80% | 1012.2 hPa | 0 mm | - | 14 W/m² | - |
| 1777721656 | 7.22° C | 82% | 1012.1 hPa | 0 mm | - | 28 W/m² | - |
| 1777721355 | 6.67° C | 80% | 1011.9 hPa | 0 mm | - | 37 W/m² | - |
| 1777721051 | 6.67° C | 83% | 1012.1 hPa | 0 mm | - | 63 W/m² | - |
| 1777720749 | 6.67° C | 79% | 1012.1 hPa | 0 mm | - | 51 W/m² | - |
| 1777720446 | 6.67° C | 87% | 1012.1 hPa | 0 mm | - | 83 W/m² | - |
| 1777720143 | 6.11° C | 90% | 1011.9 hPa | 0 mm | - | 51 W/m² | - |
| 1777719841 | 6.11° C | 91% | 1012.1 hPa | 0 mm | - | 52 W/m² | - |
| 1777719538 | 6.11° C | 91% | 1012 hPa | 0 mm | - | 51 W/m² | - |
| 1777719235 | 6.11° C | 91% | 1012.1 hPa | 0 mm | - | 28 W/m² | - |
| 1777718933 | 6.11° C | 91% | 1012 hPa | 0 mm | - | 39 W/m² | - |
| 1777718630 | 6.11° C | 90% | 1011.9 hPa | 0 mm | - | 26 W/m² | - |
| 1777718327 | 5.56° C | 90% | 1011.8 hPa | 0 mm | - | 16 W/m² | - |
| 1777718024 | 5.56° C | 88% | 1012.1 hPa | 0 mm | - | 13 W/m² | - |
| 1777717721 | 5.56° C | 86% | 1012.1 hPa | 1.27 mm | - | 14 W/m² | - |
| 1777717418 | 6.11° C | 84% | 1012.2 hPa | 1.27 mm | - | 5 W/m² | - |
| 1777717116 | 6.11° C | 83% | 1012 hPa | 0 mm | - | 3 W/m² | - |
| 1777716814 | 6.11° C | 84% | 1012.1 hPa | 0 mm | - | 3 W/m² | - |
| 1777716512 | 6.11° C | 84% | 1012 hPa | 0 mm | - | 4 W/m² | - |
| 1777716211 | 6.11° C | 82% | 1011.8 hPa | 0 mm | - | 4 W/m² | - |
* Rain latest hour (hover to see other rain measurements)
** Current wind speed in m/s (hover to see current wind gust speed)